• In Austria
  • List of Countries
  • For 7 days
  • Water Temperature
  • Satellite Maps
  • Weather Map
  • News
  • Weather Widgets
  • user-avatar
    Login

    Hourly Weather Antonin

    Today, 16 August, Thursday

    Time Temperature Precipitation Wind Pressure Humidity
    00:00 +19°C° 0 mm 1 mps 752 mmHg 74%
    01:00 +19°C° 0 mm 1 mps 752 mmHg 76%
    02:00 +16°C° 0 mm 0 mps 752 mmHg 78%
    03:00 +16°C° 0 mm 0 mps 752 mmHg 79%
    04:00 +16°C° 0 mm 0 mps 752 mmHg 81%
    05:00 +17°C° 0 mm 0 mps 752 mmHg 77%
    06:00 +18°C° 0 mm 0 mps 752 mmHg 73%
    07:00 +19°C° 0 mm 0 mps 752 mmHg 69%
    08:00 +21°C° 0 mm 0 mps 752 mmHg 64%
    09:00 +22°C° 0 mm 0 mps 752 mmHg 58%
    10:00 +26°C° 0 mm 1 mps 752 mmHg 53%
    11:00 +26°C° 0 mm 1 mps 752 mmHg 50%
    12:00 +27°C° 0 mm 1 mps 752 mmHg 47%
    13:00 +27°C° 0 mm 1 mps 751 mmHg 45%
    14:00 +27°C° 0 mm 1 mps 751 mmHg 46%
    15:00 +27°C° 0 mm 1 mps 751 mmHg 47%
    16:00 +27°C° 0 mm 1 mps 751 mmHg 48%
    17:00 +26°C° 0 mm 1 mps 751 mmHg 50%
    18:00 +25°C° 0 mm 1 mps 750 mmHg 53%
    19:00 +24°C° 0 mm 1 mps 750 mmHg 55%
    20:00 +23°C° 0 mm 1 mps 750 mmHg 57%
    21:00 +23°C° 0 mm 2 mps 751 mmHg 59%
    22:00 +21°C° 0 mm 2 mps 751 mmHg 60%
    23:00 +21°C° 0 mm 2 mps 751 mmHg 63%

    Tomorrow, 17 August, Friday

    Time Temperature Precipitation Wind Pressure Humidity
    00:00 +20°C° 0 mm 2 mps 750 mmHg 65%
    01:00 +19°C° 0 mm 2 mps 750 mmHg 68%
    02:00 +19°C° 0 mm 2 mps 750 mmHg 71%
    03:00 +19°C° 0 mm 2 mps 750 mmHg 75%
    04:00 +18°C° 0 mm 2 mps 750 mmHg 78%
    05:00 +19°C° 0 mm 2 mps 750 mmHg 76%
    06:00 +20°C° 0 mm 2 mps 750 mmHg 74%
    07:00 +21°C° 0 mm 2 mps 750 mmHg 72%
    08:00 +24°C° 0 mm 3 mps 750 mmHg 66%
    09:00 +26°C° 0 mm 3 mps 750 mmHg 60%
    10:00 +27°C° 0 mm 3 mps 750 mmHg 53%
    11:00 +28°C° 0 mm 3 mps 749 mmHg 51%
    12:00 +28°C° 0 mm 3 mps 749 mmHg 48%
    13:00 +29°C° 0 mm 2 mps 749 mmHg 45%
    14:00 +29°C° 0 mm 2 mps 749 mmHg 45%
    15:00 +29°C° 0 mm 2 mps 748 mmHg 45%
    16:00 +29°C° 0 mm 2 mps 748 mmHg 45%
    17:00 +28°C° 0 mm 2 mps 748 mmHg 50%
    18:00 +27°C° 0 mm 2 mps 748 mmHg 54%
    19:00 +25°C° 0 mm 2 mps 748 mmHg 58%
    20:00 +25°C° 0 mm 2 mps 748 mmHg 61%
    21:00 +24°C° 0 mm 2 mps 749 mmHg 64%
    22:00 +23°C° 0 mm 2 mps 749 mmHg 67%
    23:00 +21°C° 0 mm 2 mps 749 mmHg 70%

    Day after tomorrow, 18 August, Saturday

    Time Temperature Precipitation Wind Pressure Humidity
    00:00 +21°C° 0 mm 2 mps 749 mmHg 73%
    01:00 +22°C° 0 mm 1 mps 749 mmHg 76%
    02:00 +21°C° 0 mm 1 mps 749 mmHg 77%
    03:00 +21°C° 0 mm 1 mps 749 mmHg 79%
    04:00 +20°C° 0 mm 1 mps 749 mmHg 81%
    05:00 +22°C° 0 mm 1 mps 749 mmHg 76%
    06:00 +23°C° 0 mm 1 mps 750 mmHg 72%
    07:00 +24°C° 0 mm 1 mps 750 mmHg 68%
    08:00 +25°C° 0 mm 1 mps 750 mmHg 62%
    09:00 +27°C° 0 mm 1 mps 750 mmHg 55%
    10:00 +29°C° 0 mm 1 mps 750 mmHg 49%
    11:00 +29°C° 0 mm 1 mps 750 mmHg 47%
    12:00 +30°C° 0 mm 2 mps 750 mmHg 44%
    13:00 +30°C° 0 mm 2 mps 750 mmHg 42%
    14:00 +30°C° 0 mm 2 mps 750 mmHg 43%
    15:00 +30°C° 0 mm 2 mps 750 mmHg 44%
    16:00 +30°C° 0 mm 2 mps 750 mmHg 45%
    17:00 +28°C° 0 mm 2 mps 751 mmHg 50%
    18:00 +27°C° 0 mm 2 mps 751 mmHg 55%
    19:00 +26°C° 0 mm 2 mps 751 mmHg 61%
    20:00 +25°C° 0.4 mm 3 mps 751 mmHg 67%
    21:00 +22°C° 0.4 mm 3 mps 752 mmHg 74%
    22:00 +21°C° 0.4 mm 3 mps 752 mmHg 81%
    23:00 +21°C° 0.1 mm 3 mps 752 mmHg 84%

    19 August, Sunday

    Time Temperature Precipitation Wind Pressure Humidity
    00:00 +20°C° 0.1 mm 3 mps 753 mmHg 86%
    01:00 +19°C° 0.1 mm 2 mps 753 mmHg 89%
    02:00 +19°C° 0 mm 2 mps 753 mmHg 90%
    03:00 +19°C° 0 mm 2 mps 753 mmHg 91%
    04:00 +18°C° 0 mm 2 mps 753 mmHg 92%
    05:00 +19°C° 0 mm 2 mps 753 mmHg 86%
    06:00 +21°C° 0 mm 1 mps 754 mmHg 80%
    07:00 +22°C° 0 mm 1 mps 754 mmHg 75%
    08:00 +23°C° 0 mm 1 mps 754 mmHg 66%
    09:00 +25°C° 0 mm 2 mps 754 mmHg 57%
    10:00 +26°C° 0 mm 2 mps 754 mmHg 48%
    11:00 +27°C° 0 mm 2 mps 754 mmHg 45%
    12:00 +28°C° 0 mm 2 mps 754 mmHg 42%
    13:00 +28°C° 0 mm 2 mps 753 mmHg 38%
    14:00 +28°C° 0 mm 2 mps 753 mmHg 38%
    15:00 +29°C° 0 mm 2 mps 753 mmHg 37%
    16:00 +29°C° 0 mm 2 mps 753 mmHg 37%
    17:00 +27°C° 0 mm 2 mps 753 mmHg 41%
    18:00 +26°C° 0 mm 1 mps 753 mmHg 45%
    19:00 +24°C° 0 mm 1 mps 753 mmHg 49%
    20:00 +24°C° 0 mm 1 mps 753 mmHg 50%
    21:00 +23°C° 0 mm 1 mps 753 mmHg 52%
    22:00 +22°C° 0 mm 1 mps 753 mmHg 53%
    23:00 +22°C° 0 mm 1 mps 753 mmHg 54%

    20 August, Monday

    Time Temperature Precipitation Wind Pressure Humidity
    00:00 +21°C° 0 mm 1 mps 753 mmHg 56%
    01:00 +21°C° 0 mm 1 mps 753 mmHg 57%
    02:00 +21°C° 0 mm 1 mps 753 mmHg 59%
    03:00 +20°C° 0 mm 1 mps 753 mmHg 60%
    04:00 +20°C° 0 mm 1 mps 753 mmHg 61%
    05:00 +21°C° 0 mm 1 mps 753 mmHg 60%
    06:00 +21°C° 0 mm 2 mps 753 mmHg 58%
    07:00 +23°C° 0 mm 2 mps 753 mmHg 57%
    08:00 +25°C° 0 mm 2 mps 753 mmHg 52%
    09:00 +26°C° 0 mm 2 mps 753 mmHg 47%
    10:00 +28°C° 0 mm 2 mps 753 mmHg 42%
    11:00 +29°C° 0 mm 2 mps 752 mmHg 40%
    12:00 +30°C° 0 mm 2 mps 752 mmHg 37%
    13:00 +31°C° 0 mm 2 mps 752 mmHg 35%
    14:00 +31°C° 0 mm 2 mps 751 mmHg 35%
    15:00 +31°C° 0 mm 2 mps 751 mmHg 35%
    16:00 +31°C° 0 mm 2 mps 751 mmHg 35%
    17:00 +30°C° 0 mm 2 mps 751 mmHg 39%
    18:00 +28°C° 0 mm 1 mps 751 mmHg 43%
    19:00 +27°C° 0 mm 1 mps 751 mmHg 47%
    20:00 +26°C° 0 mm 1 mps 751 mmHg 48%
    21:00 +26°C° 0 mm 2 mps 751 mmHg 48%
    22:00 +26°C° 0 mm 2 mps 751 mmHg 49%
    23:00 +25°C° 0 mm 2 mps 751 mmHg 51%

    21 August, Tuesday

    Time Temperature Precipitation Wind Pressure Humidity
    00:00 +25°C° 0 mm 2 mps 751 mmHg 53%
    01:00 +24°C° 0 mm 2 mps 751 mmHg 55%
    02:00 +23°C° 0 mm 2 mps 751 mmHg 59%
    03:00 +23°C° 0 mm 2 mps 751 mmHg 63%
    04:00 +21°C° 0 mm 2 mps 751 mmHg 67%
    05:00 +23°C° 0 mm 2 mps 751 mmHg 67%
    06:00 +23°C° 0 mm 2 mps 751 mmHg 66%
    07:00 +24°C° 0 mm 2 mps 752 mmHg 66%
    08:00 +25°C° 0 mm 2 mps 752 mmHg 61%
    09:00 +27°C° 0 mm 2 mps 751 mmHg 55%
    10:00 +29°C° 0 mm 2 mps 751 mmHg 50%
    11:00 +29°C° 0 mm 2 mps 751 mmHg 48%
    12:00 +30°C° 0 mm 2 mps 751 mmHg 46%
    13:00 +31°C° 0 mm 2 mps 751 mmHg 44%
    14:00 +30°C° 0 mm 2 mps 751 mmHg 45%
    15:00 +30°C° 0 mm 2 mps 750 mmHg 46%
    16:00 +30°C° 0 mm 2 mps 750 mmHg 47%
    17:00 +29°C° 0 mm 2 mps 750 mmHg 52%
    18:00 +27°C° 0 mm 2 mps 750 mmHg 56%
    19:00 +26°C° 0 mm 2 mps 750 mmHg 61%
    20:00 +25°C° 0 mm 2 mps 750 mmHg 63%
    21:00 +24°C° 0 mm 2 mps 750 mmHg 66%
    22:00 +24°C° 0 mm 2 mps 750 mmHg 68%
    23:00 +23°C° 0 mm 2 mps 750 mmHg 69%
    Show more